Weather History for West Palm Beach, FL

Change the Weather History Date:

Saturday, January 28, 2012

  Actual Average Record
Temperature  
Mean Temperature 73 °F 66 °F  
Max Temperature 80 °F 75 °F 87 °F (1952)
Min Temperature 65 °F 57 °F 31 °F (1986)
Degree Days  
Heating Degree Days 0 2  
Month to date heating degree days 76 82  
Since 1 July heating degree days 87 153  
Cooling Degree Days 8 4  
Month to date cooling degree days 90 94  
Year to date cooling degree days 90 94  
Growing Degree Days 23 (Base 50)    
Moisture  
Dew Point 63 °F    
Average Humidity 72    
Maximum Humidity 93    
Minimum Humidity 51    
Precipitation  
Precipitation 0.00 in 0.10 in 2.16 in (1924)
Month to date precipitation 0.38 2.86  
Year to date precipitation 0.38 2.86  
Snow  
Snow 0.00 in - - ()
Month to date snowfall 0.0  
Since 1 July snowfall 0.0  
Snow Depth 0.00 in    
Sea Level Pressure  
Sea Level Pressure 30.11 in    
Wind  
Wind Speed 5 mph (NNW)    
Max Wind Speed 12 mph    
Max Gust Speed 14 mph    
Visibility 10 miles    
Events      
T = Trace of Precipitation, MM = Missing Value Source: NWS Daily Summary

Daily Weather History Graph

Daily Weather History Graph

Search for Another Location

Airport:

Trip Planner

Search our weather history database for the weather conditions in past years. The results will help you decide how hot, cold, wet, or windy it might be!

Date:

Astronomy

Jan. 28, 2012 Rise Set
Actual Time 7:07 AM EST 5:59 PM EST
Civil Twilight 6:43 AM EST 6:23 PM EST
Nautical Twilight 6:15 AM EST 6:51 PM EST
Astronomical Twilight 5:47 AM EST 7:19 PM EST
Moon 10:05 AM EST (1/28) 11:05 PM EST (1/28)
Length of Visible Light 11h 40m
Length of Day
10h 51m
Waxing Crescent, 27% of the Moon is Illuminated
Jan 28
Waxing Crescent
Jan 30
First Quarter
Feb 7
Full
Feb 14
Last Quarter
Feb 21
New

Hourly Weather History & Observations

Time (EST) Temp. Heat Index Dew Point Humidity Pressure Visibility Wind Dir Wind Speed Gust Speed Precip Events Conditions
12:53 AM 68.0 °F - 64.0 °F 87% 30.06 in 10.0 mi WNW 3.5 mph - N/A   Scattered Clouds
1:53 AM 66.9 °F - 64.0 °F 90% 30.06 in 10.0 mi WNW 4.6 mph - N/A   Scattered Clouds
2:53 AM 68.0 °F - 64.9 °F 90% 30.06 in 10.0 mi NNW 4.6 mph - N/A   Mostly Cloudy
3:53 AM 68.0 °F - 64.9 °F 90% 30.06 in 10.0 mi NNW 3.5 mph - N/A   Overcast
4:53 AM 66.9 °F - 64.0 °F 90% 30.07 in 10.0 mi Calm Calm - N/A   Mostly Cloudy
5:53 AM 66.9 °F - 64.0 °F 90% 30.09 in 10.0 mi Calm Calm - N/A   Mostly Cloudy
6:53 AM 66.9 °F - 64.9 °F 93% 30.11 in 10.0 mi NW 4.6 mph - N/A   Mostly Cloudy
7:53 AM 68.0 °F - 64.9 °F 90% 30.13 in 10.0 mi NNW 8.1 mph - N/A   Overcast
8:53 AM 70.0 °F - 64.9 °F 84% 30.14 in 10.0 mi NNW 5.8 mph - N/A   Mostly Cloudy
9:53 AM 73.0 °F - 63.0 °F 71% 30.16 in 10.0 mi North 6.9 mph - N/A   Mostly Cloudy
10:53 AM 73.9 °F - 63.0 °F 68% 30.15 in 10.0 mi North 4.6 mph - N/A   Mostly Cloudy
11:53 AM 77.0 °F - 62.1 °F 60% 30.14 in 10.0 mi SW 4.6 mph - N/A   Mostly Cloudy
12:53 PM 78.1 °F - 62.1 °F 58% 30.12 in 10.0 mi NW 8.1 mph - N/A   Mostly Cloudy
1:53 PM 78.1 °F - 62.1 °F 58% 30.09 in 10.0 mi West 6.9 mph - N/A   Mostly Cloudy
2:53 PM 80.1 °F 81.1 °F 61.0 °F 52% 30.07 in 10.0 mi WNW 5.8 mph - N/A   Mostly Cloudy
3:53 PM 75.9 °F - 64.0 °F 67% 30.08 in 10.0 mi East 5.8 mph - N/A   Mostly Cloudy
4:53 PM 75.9 °F - 63.0 °F 64% 30.09 in 10.0 mi NE 8.1 mph - N/A   Mostly Cloudy
5:53 PM 73.0 °F - 62.1 °F 68% 30.10 in 10.0 mi North 9.2 mph - N/A   Mostly Cloudy
6:53 PM 71.1 °F - 62.1 °F 73% 30.13 in 10.0 mi North 9.2 mph - N/A   Mostly Cloudy
7:53 PM 71.1 °F - 62.1 °F 73% 30.14 in 10.0 mi North 6.9 mph - N/A   Overcast
8:53 PM 70.0 °F - 61.0 °F 73% 30.15 in 10.0 mi North 6.9 mph - N/A   Overcast
9:53 PM 69.1 °F - 61.0 °F 75% 30.15 in 10.0 mi NNW 4.6 mph - N/A   Overcast
10:53 PM 70.0 °F - 61.0 °F 73% 30.15 in 10.0 mi Calm Calm - N/A   Overcast
11:33 PM 69.8 °F - 62.6 °F 78% 30.15 in 10.0 mi North 4.6 mph - N/A   Overcast
11:53 PM 70.0 °F - 62.1 °F 76% 30.15 in 10.0 mi NNW 3.5 mph - N/A   Overcast